Weather History for Farnborough, United Kingdom

Change the Weather History Date:

Tuesday, November 13, 2012

  Actual Average (EGLL) Record (EGLL)
Temperature  
Mean Temperature 52 °F -  
Max Temperature 57 °F 50 °F 60 °F (2006)
Min Temperature 48 °F 39 °F 32 °F (1997)
Degree Days  
Heating Degree Days 12    
Growing Degree Days 2 (Base 50)    
Moisture  
Dew Point 51 °F    
Average Humidity 89    
Maximum Humidity 100    
Minimum Humidity 77    
Precipitation  
Precipitation 0.00 in - - ()
Sea Level Pressure  
Sea Level Pressure 30.32 in    
Wind  
Wind Speed 7 mph ()    
Max Wind Speed 12 mph    
Max Gust Speed -    
Visibility 7.3 miles    
Events Rain    
Averages and records for this station are not official NWS values.
T = Trace of Precipitation, MM = Missing Value Source: Averaged Metar Reports

Daily Weather History Graph

Daily Weather History Graph

Search for Another Location

Airport:

Trip Planner

Search our weather history database for the weather conditions in past years. The results will help you decide how hot, cold, wet, or windy it might be!

Date:

Astronomy

Nov. 13, 2012 Rise Set
Actual Time 7:17 AM GMT 4:16 PM GMT
Civil Twilight 6:40 AM GMT 4:53 PM GMT
Nautical Twilight 6:00 AM GMT 5:33 PM GMT
Astronomical Twilight 5:21 AM GMT 6:12 PM GMT
Moon 6:37 AM GMT (11/13) 3:55 PM GMT (11/13)
Length of Visible Light 10h 12m
Length of Day
8h 59m
Waning Crescent, 0% of the Moon is Illuminated
Nov 13
Waning Crescent
Nov 13
New
Nov 20
First Quarter
Nov 28
Full
Dec 6
Last Quarter

Hourly Weather History & Observations

Time (GMT) Temp. Dew Point Humidity Pressure Visibility Wind Dir Wind Speed Gust Speed Precip Events Conditions
2:50 AM 51 °F 48 °F 87% 30.26 in 16 mi SW 10.4 mph - -   Overcast
5:50 AM 50 °F 49 °F 97% 30.28 in 9 mi SSW 6.9 mph - -  
6:50 AM 50.0 °F 48.2 °F 94% 30.30 in 6.2 mi SSW 5.8 mph - N/A   Scattered Clouds
7:20 AM 48.2 °F 48.2 °F 100% 30.30 in 6.2 mi South 5.8 mph - N/A   Scattered Clouds
7:50 AM 50.0 °F 48.2 °F 94% 30.30 in 6.2 mi South 5.8 mph - N/A   Mostly Cloudy
8:20 AM 51.8 °F 50.0 °F 94% 30.33 in 6.2 mi SSW 6.9 mph - N/A   Mostly Cloudy
8:50 AM 54 °F 51 °F 84% 30.33 in 16 mi SW 8.1 mph - -   Overcast
8:50 AM 53.6 °F 50.0 °F 88% 30.33 in 6.2 mi SSW 9.2 mph - N/A   Mostly Cloudy
9:20 AM 53.6 °F 50.0 °F 88% 30.33 in 6.2 mi South 6.9 mph - N/A   Mostly Cloudy
9:50 AM 53.6 °F 51.8 °F 94% 30.33 in 6.2 mi South 8.1 mph - N/A   Mostly Cloudy
10:20 AM 53.6 °F 51.8 °F 94% 30.33 in 6.2 mi South 8.1 mph - N/A   Mostly Cloudy
10:50 AM 55.4 °F 51.8 °F 88% 30.33 in 6.2 mi South 10.4 mph - N/A   Mostly Cloudy
11:20 AM 57.2 °F 51.8 °F 82% 30.33 in 6.2 mi SSW 11.5 mph - N/A   Scattered Clouds
11:50 AM 56 °F 52 °F 82% 30.33 in 13 mi SSW 10.4 mph - -   Scattered Clouds
11:50 AM 55.4 °F 51.8 °F 88% 30.33 in 6.2 mi SSW 10.4 mph - N/A   Scattered Clouds
12:20 PM 55.4 °F 51.8 °F 88% 30.33 in 6.2 mi South 9.2 mph - N/A   Mostly Cloudy
12:50 PM 55.4 °F 51.8 °F 88% 30.30 in 6.2 mi SSW 9.2 mph - N/A   Mostly Cloudy
1:20 PM 57.2 °F 50.0 °F 77% 30.30 in 6.2 mi SSW 9.2 mph - N/A   Mostly Cloudy
1:50 PM 57.2 °F 51.8 °F 82% 30.30 in 6.2 mi SSW 11.5 mph - N/A   Mostly Cloudy
2:20 PM 55.4 °F 51.8 °F 88% 30.30 in 6.2 mi SSW 9.2 mph - N/A   Mostly Cloudy
2:50 PM 56 °F 52 °F 82% 30.32 in 11 mi South 8.1 mph - -   Scattered Clouds
2:50 PM 55.4 °F 51.8 °F 88% 30.30 in 6.2 mi South 8.1 mph - N/A Rain Light Rain Showers
3:20 PM 55.4 °F 51.8 °F 88% 30.30 in 6.2 mi SSW 6.9 mph - N/A   Mostly Cloudy
3:50 PM 55.4 °F 51.8 °F 88% 30.30 in 6.2 mi SSW 8.1 mph - N/A   Mostly Cloudy
4:20 PM 53.6 °F 50.0 °F 88% 30.30 in 6.2 mi SSW 8.1 mph - N/A   Mostly Cloudy
4:50 PM 53.6 °F 50.0 °F 88% 30.33 in 6.2 mi South 8.1 mph - N/A   Mostly Cloudy
5:20 PM 53.6 °F 50.0 °F 88% 30.33 in 6.2 mi South 5.8 mph - N/A   Mostly Cloudy
5:50 PM 54 °F 51 °F 86% 30.33 in 9 mi SSW 4.6 mph - -   Overcast
5:50 PM 53.6 °F 50.0 °F 88% 30.33 in 6.2 mi South 5.8 mph - N/A   Mostly Cloudy
6:20 PM 53.6 °F 50.0 °F 88% 30.33 in 6.2 mi South 4.6 mph - N/A   Mostly Cloudy
6:50 PM 51.8 °F 50.0 °F 94% 30.33 in 6.2 mi South 5.8 mph - N/A   Mostly Cloudy
7:20 PM 51.8 °F 50.0 °F 94% 30.33 in 6.2 mi SSE 5.8 mph - N/A   Mostly Cloudy
7:50 PM 51.8 °F 50.0 °F 94% 30.33 in 6.2 mi SSE 6.9 mph - N/A   Mostly Cloudy
8:20 PM 51.8 °F 50.0 °F 94% 30.33 in 6.2 mi South 8.1 mph - N/A   Mostly Cloudy
8:50 PM 53 °F 51 °F 88% 30.35 in 9 mi South 8.1 mph - -   Mostly Cloudy
8:50 PM 51.8 °F 50.0 °F 94% 30.33 in 6.2 mi South 9.2 mph - N/A   Mostly Cloudy
11:50 PM 52 °F 50 °F 89% 30.35 in 9 mi SE 4.6 mph - -   Overcast